Regional Weather Roundup
Issued by NWS Charleston, SC

Current Version | Previous Version | Graphics & Text | Print | Product List | Glossary On
Versions: 1 2 3 4 5 6 7 8 9 10 11 12 13 14 15 16 17 18 19 20 21 22 23 24 25 26 27 28 29 30 31 32 33 34 35 36 37 38 39 40 41 42 43 44 45 46 47 48 49 50
000
ASUS42 KCHS 031727
RWRCHS

REGIONAL WEATHER ROUNDUP
NATIONAL WEATHER SERVICE CHARLESTON SC
1200 PM EST SAT DEC 03 2016

NOTE: "FAIR" INDICATES FEW OR NO CLOUDS BELOW 12,000 FEET WITH NO
SIGNIFICANT WEATHER AND/OR OBSTRUCTIONS TO VISIBILITY.

NOT ALL STATIONS ARE QUALITY CONTROLLED. USE DATA WITH CAUTION...
ESPECIALLY DEWPOINT OBSERVATIONS.

SCZ027-030-031-034>040-042>050-031800-
...SOUTHEAST SOUTH CAROLINA...

CITY           SKY/WX    TMP DP  RH WIND       PRES   REMARKS
N CHARLESTON   PTSUNNY   54  33  45 NE9       30.25F
WATERFRONT PRK   N/A     52  40  63 NE8       30.27F
MOUNT PLEASANT FAIR      54  36  50 NE5       30.25F
JOHNS ISLAND   FAIR      55  36  47 NE9       30.25F
PINOPOLIS        N/A     48  37  66 NE7       30.20F
MONCKS CORNER  FAIR      52  32  46 N5        30.25F
SUMMERVILLE    FAIR      54  36  50 NE7       30.26F
BEAUFORT MCAS  MOSUNNY   57  37  47 VRB7      30.25F
BEAUFORT ARPT  FAIR      57  36  44 NE7       30.24F
HILTON HEAD IS MOSUNNY   63  39  42 NE8       30.26F
WALTERBORO     CLOUDY    55  36  47 N5        30.27F
ALLENDALE      FAIR      54  36  50 SE5       30.24F

...SOUTHERN MIDLANDS AND PEE DEE...

CITY           SKY/WX    TMP DP  RH WIND       PRES   REMARKS
GEORGETOWN     FAIR      52  32  46 CALM      30.26
KINGSTREE      FAIR      50  32  50 NE6       30.27F
ORANGEBURG     CLOUDY    51  33  50 E6        30.27F
BARNWELL       NOT AVBL
AIKEN          FAIR      50  32  50 CALM      30.29F
MANNING        NOT AVBL
COLUMBIA       CLOUDY    53  33  46 VRB3      30.26F
SUMTER         CLOUDY    51  33  49 NE3       30.25F
FLORENCE       CLOUDY    51  32  48 VRB6      30.27F
MYRTLE BEACH   SUNNY     52  32  46 N12       30.28F
N MYRTLE BEACH MOSUNNY   50  31  48 N8        30.25F

$$

GAZ063-065-086>088-099>101-113>116-118-119-134>141-150-031800-
...SOUTHEAST GEORGIA...

CITY           SKY/WX    TMP DP  RH WIND       PRES   REMARKS
SAVANNAH ARPT  PTSUNNY   63  33  32 E7        30.24F
HUNTER AAF     SUNNY     61  41  46 E9        30.21F
FORT STEWART   MOSUNNY   60  35  39 E5        30.22F
STATESBORO     SUNNY     62  36  38 E6        30.23F
SYLVANIA       MOSUNNY  N/A N/A N/A NE7       30.24F
CLAXTON        FAIR      60  39  45 NE6       30.23F

...CSRA...CENTRAL AND FAR SOUTHEAST GEORGIA...

CITY           SKY/WX    TMP DP  RH WIND       PRES   REMARKS
THOMSON        CLOUDY    56  37  47 CALM      30.29F
AUGUSTA-BUSH   PTSUNNY   57  33  40 E6        30.27F
AUGUSTA-DANIEL CLOUDY    54  32  43 E5        30.27F
SWAINSBORO     FAIR      59  30  33 E7        30.24F
VIDALIA        SUNNY     63  39  42 E6        30.24F
EASTMAN        FAIR      63   8  11 NE3       30.24F
HAZLEHURST     FAIR      63  34  33 NE6       30.21F
ALMA           MOSUNNY   60  35  39 VRB3      30.23F
WAYCROSS       CLOUDY    63  39  41 CALM      30.22F
JESUP          FAIR      61  43  51 E6        30.23F
BAXLEY         FAIR      63  39  42 E5        30.22F
BRUNSWICK      MOSUNNY   63  50  63 E12       30.23F
SAINT SIMONS   MOSUNNY   63  44  50 NE14      30.23F

$$

SCZ027-028-034-036>038-045-046-048>050-GAZ119-141-031800-
...LAKE AND SUPPLEMENTAL COASTAL OBSERVATIONS...

STATION/POSITION TIME  TEMP    WIND        PRES    WAVE   SWELL
                       AIR SEA DIR/SP/G            HT/PER HT/PER/DIR
                 (UTC) (F)     (DEG/KT/KT) (MB)    (FT/S) (FT/S/D)
WINYAH BAY       1630   49      60/ 10     1025.0F
LAKE MURRAY      1650   50      CALM  /  4 1024.7F
ACE BASIN NERRS  1645   58      60/  5     1024.0F
FORT PULASKI     1700   56 62   70/ 13/ 16 1024.1
SAPELO ISLAND    1700   62      60/ 10     1024.0

$$

ANZ835-935-AMZ111-154-330-350-352-354-370-450-454-472-031800-
...C-MAN AND BUOY OBSERVATIONS...

STATION/POSITION TIME  TEMP    WIND        PRES    WAVE   SWELL
                       AIR SEA DIR/SP/G            HT/PER HT/PER/DIR
                 (UTC) (F)     (DEG/KT/KT) (MB)    (FT/S) (FT/S/D)
BUOY 41004       1650   58 75   30/ 16/ 19 1023.6F   4/ 5   2/130/ 9
BUOY 41008       1650   61 65   50/ 12/ 16 1023.5F   3/ 9   2/130/ 9
FOLLY BEACH CMAN 1700   52      30/ 12/ 16 1024.8F
CAPERS NEARSHORE 1708   53 62   60/ 14/ 19 1023.8F
FRIPP NEARSHORE  1708   56 63   50/ 14/ 21 1023.8F


STATION/POSITION TIME  TEMP    WIND        PRES    WAVE   SWELL
                       AIR SEA DIR/SP/G            HT/PER HT/PER/DIR
                 (UTC) (F)     (DEG/KT/KT) (MB)    (FT/S) (FT/S/D)
5E ST. MARYS GA  1700      66                N/A     3/ 5
FRYING PAN BUOY  1710   52 74   10/ 14/ 17 1023.5
BUOY 41025       1650   55 74  360/ 17/ 21 1022.2F   5/ 8   2/240/14
CAPE LOOKOUT NC  1700   49     340/ 11/ 15 1023.4F
BUOY 41002       1650   65 74  350/ 14/ 17 1020.3F   5/ 6   3/170/11
BUOY 41010       NOT AVBL
ST AUGUSTINE FL  1700   66 66   30/ 13/ 14 1023.1F


$$




USA.gov is the U.S. government's official web portal to all federal, state and local government web resources and services.